Regional Weather Roundup
Issued by NWS

Home | Current Version | Previous Version | Text Only | Print | Product List | Glossary Off
Versions: 1 2 3 4 5 6 7 8 9 10 11 12 13 14 15 16 17 18 19 20 21 22 23 24 25 26 27 28 29 30 31 32 33 34 35 36 37 38 39 40 41 42 43 44 45 46 47 48 49 50

000
ASUS45 KABQ 311301
RWRNM
NEW MEXICO REGIONAL WEATHER ROUNDUP
NATIONAL WEATHER SERVICE ALBUQUERQUE NM
700 AM MDT MON AUG 31 2015

NOTE: "FAIR" MEANS FEW OR NO CLOUDS BELOW 12,000 FEET AGL WITH NO
       SIGNIFICANT WEATHER OR OBSTRUCTIONS TO VISION.

      THIS PRODUCT IS RELEASED AS TWO VERSIONS.  ONE VERSION NEAR
      THE TOP OF THE HOUR CONTAINING PRELIMINARY DATA FROM ALBUQUERQUE
      AND OTHER STATIONS.  A FINAL VERSION WITH ADDITIONAL DATA IS
      ISSUED ABOUT 10 MINUTES AFTER THE HOUR.

NMZ501-503-504-510>518-311400-
NORTHWEST PLATEAU/NORTHCENTRAL MOUNTAINS

CITY           SKY/WX    TMP DP  RH WIND       PRES   REMARKS
FARMINGTON     CLEAR     57  50  77 NE7       30.18R
SANTA FE       PTCLDY    57  46  66 VRB5      30.22R
TAOS           CLEAR     48  34  57 N7        30.31R

$$
NMZ402-403-502-505>509-311400-
WESTCENTRAL MOUNTAINS/SOUTHWEST MOUNTAINS

CITY           SKY/WX    TMP DP  RH WIND       PRES   REMARKS
GALLUP         MOCLDY    55  52  89 E5        30.26R
SILVER CITY      N/A     61  54  77 N9        30.19R

$$
NMZ407-409-411-412-311400-
SOUTHERN DESERTS

CITY           SKY/WX    TMP DP  RH WIND       PRES   REMARKS
DEMING         CLEAR     62  54  74 CALM      30.10R
HOLLOMAN AFB   CLEAR     64  51  63 W2        30.08R
ALAMOGORDO     CLEAR     63  48  59 CALM      30.10R
T OR C         CLEAR     67  51  56 NW5       30.12R

$$
NMZ519>523-311400-
CENTRAL VALLEYS/CENTRAL HIGHLANDS

CITY           SKY/WX    TMP DP  RH WIND       PRES   REMARKS
ALBUQUERQUE    PTCLDY    68  50  52 W3        30.18R
DOUBLE EAGLE   PTCLDY    61  48  63 W8        30.21R
MORIARTY ARPT  FAIR      48  44  86 CALM      30.23R
CLINES CORNERS CLEAR     56  46  69 W9        30.25R
BELEN          FAIR      63  49  59 N6        30.17R
SOCORRO        NOT AVBL

$$
NMZ524>526-539-540-311400-
SOUTHCENTRAL MOUNTAINS

CITY           SKY/WX    TMP DP  RH WIND       PRES   REMARKS
RUIDOSO        NOT AVBL

$$
NMZ527>531-311400-
NORTHEAST HIGHLANDS/NORTHEAST PLAINS

CITY           SKY/WX    TMP DP  RH WIND       PRES   REMARKS
LAS VEGAS      CLEAR     57  45  64 W3        30.22R
RATON          CLEAR     54  48  80 NE5       30.16R
CLAYTON        CLEAR     64  47  53 W13       30.05R

$$
NMZ532>537-311400-
EASTCENTRAL PLAINS

CITY           SKY/WX    TMP DP  RH WIND       PRES   REMARKS
TUCUMCARI      CLEAR     67  51  56 SW10      30.03R
CANNON AFB     CLEAR     61  54  75 SW6       30.10R
CLOVIS AIRPORT CLEAR     57  52  82 SW7       30.11R

$$
NMZ028-029-538-311400-
SOUTHEAST PLAINS

CITY           SKY/WX    TMP DP  RH WIND       PRES   REMARKS
ROSWELL        CLEAR     61  52  72 S5        30.05R
ARTESIA        CLEAR     63  52  67 S7        30.07R
CARLSBAD       CLEAR     64  49  57 S7        30.04
HOBBS          CLEAR     61  61 100 SE8       30.09R


$$



USA.gov is the U.S. government's official web portal to all federal, state and local government web resources and services.